Weather History for Asheville, NC

Change the Weather History Date:

Friday, July 27, 2007

  Actual Average Record
Temperature  
Mean Temperature 72 °F 74 °F  
Max Temperature 83 °F 84 °F 97 °F (1952)
Min Temperature 61 °F 64 °F 48 °F (1911)
Degree Days  
Heating Degree Days 0 0  
Month to date heating degree days 0 0  
Since 1 June heating degree days 14  
Since 1 July heating degree days 0 0  
Cooling Degree Days 7 9  
Month to date cooling degree days 176 239  
Year to date cooling degree days 411 474  
Since 1 June cooling degree days 416  
Growing Degree Days 20 (Base 50)    
Moisture  
Dew Point 63 °F    
Average Humidity 77    
Maximum Humidity 96    
Minimum Humidity 58    
Precipitation  
Precipitation 0.54 in 0.13 in 4.02 in (1969)
Month to date precipitation 4.01 3.76  
Year to date precipitation 18.74 26.66  
Snow  
Snow 0.00 in 0.00 in 0.00 in ()
Month to date snowfall 0.0 0.0  
Since 1 June snowfall 0.0  
Since 1 July snowfall 0.0 0.0  
Snow Depth -    
Sea Level Pressure  
Sea Level Pressure 30.02 in    
Wind  
Wind Speed 3 mph (NNW)    
Max Wind Speed 14 mph    
Max Gust Speed 16 mph    
Visibility 6 miles    
Events Rain , Thunderstorm    
T = Trace of Precipitation, MM = Missing Value Source: NWS Daily Summary

Daily Weather History Graph

Daily Weather History Graph

Search for Another Location

Airport:

Trip Planner

Search our weather history database for the weather conditions in past years. The results will help you decide how hot, cold, wet, or windy it might be!

Date:

Astronomy

Jul. 27, 2007 Rise Set
Actual Time 6:34 AM EDT 8:38 PM EDT
Civil Twilight 6:06 AM EDT 9:06 PM EDT
Nautical Twilight 5:31 AM EDT 9:41 PM EDT
Astronomical Twilight 4:54 AM EDT 10:18 PM EDT
Moon 7:17 PM EDT (7/27) 3:44 AM EDT (7/27)
Length of Visible Light 15h 00m
Length of Day
14h 03m
Waxing Gibbous, 94% of the Moon is Illuminated
Jul 27
Waxing Gibbous
Jul 29
Full
Aug 5
Last Quarter
Aug 12
New
Aug 20
First Quarter

Hourly Weather History & Observations

Time (EDT) Temp. Heat Index Dew Point Humidity Pressure Visibility Wind Dir Wind Speed Gust Speed Precip Events Conditions
12:54 AM 64.9 °F - 63.0 °F 93% 30.09 in 6.0 mi Calm Calm - N/A   Clear
1:54 AM 64.9 °F - 62.1 °F 90% 30.07 in 6.0 mi Calm Calm - N/A   Clear
2:54 AM 64.0 °F - 62.1 °F 93% 30.06 in 7.0 mi Calm Calm - N/A   Clear
3:54 AM 63.0 °F - 60.1 °F 90% 30.05 in 5.0 mi North 3.5 mph - N/A   Clear
4:54 AM 62.1 °F - 60.1 °F 93% 30.05 in 4.0 mi WSW 3.5 mph - N/A   Clear
5:54 AM 62.1 °F - 59.0 °F 90% 30.05 in 6.0 mi Calm Calm - N/A   Clear
6:54 AM 60.8 °F - 59.0 °F 94% 30.13 in 3.0 mi Calm Calm - N/A   Clear
7:54 AM 63.0 °F - 60.1 °F 90% 30.07 in 6.0 mi NNW 3.5 mph - N/A   Clear
8:54 AM 64.9 °F - 61.0 °F 87% 30.07 in 6.0 mi Calm Calm - N/A   Clear
9:54 AM 68.0 °F - 63.0 °F 84% 30.06 in 6.0 mi NNW 4.6 mph - N/A   Haze
10:54 AM 73.0 °F - 63.0 °F 71% 30.05 in 9.0 mi NNW 4.6 mph - N/A   Clear
11:54 AM 77.0 °F - 63.0 °F 62% 30.04 in 9.0 mi NNW 6.9 mph - N/A   Clear
12:54 PM 79.0 °F - 63.0 °F 58% 30.03 in 9.0 mi Variable 3.5 mph - N/A   Clear
1:54 PM 81.0 °F 82.5 °F 64.0 °F 56% 30.00 in 9.0 mi Calm Calm - N/A   Clear
2:54 PM 77.0 °F - 66.0 °F 69% 29.99 in 3.0 mi Calm Calm - 0.01 in Rain Rain
3:06 PM 75.2 °F - 66.2 °F 73% 30.05 in 3.0 mi ESE 3.5 mph - 0.04 in Rain , Thunderstorm Thunderstorms and Rain
3:32 PM 73.4 °F - 66.2 °F 78% 30.04 in 5.0 mi East 4.6 mph - 0.41 in Rain , Thunderstorm Thunderstorms and Rain
3:54 PM 75.0 °F - 68.0 °F 79% 29.96 in 5.0 mi ESE 6.9 mph - 0.48 in Rain Rain
4:54 PM 73.0 °F - 63.0 °F 71% 29.95 in 10.0 mi Variable 5.8 mph - 0.00 in Rain Rain
5:52 PM 69.8 °F - 66.2 °F 88% 30.03 in 3.0 mi North 9.2 mph - 0.03 in Thunderstorm Overcast
5:54 PM 70.0 °F - 66.0 °F 87% 29.97 in 3.0 mi NNW 11.5 mph - 0.03 in Thunderstorm Overcast
6:19 PM 69.8 °F - 60.8 °F 73% 30.02 in 9.0 mi Variable 3.5 mph - 0.00 in Rain Light Rain
6:54 PM 68.0 °F - 62.1 °F 81% 29.96 in 6.0 mi Calm Calm - 0.02 in Rain Light Rain
7:54 PM 66.9 °F - 64.0 °F 90% 29.95 in 10.0 mi Calm Calm - 0.00 in   Clear
8:54 PM 68.0 °F - 64.9 °F 90% 29.96 in 6.0 mi NNW 5.8 mph - N/A   Clear
9:54 PM 66.0 °F - 62.1 °F 87% 29.97 in 10.0 mi NNW 4.6 mph - N/A   Clear
10:54 PM 64.0 °F - 61.0 °F 90% 29.96 in 9.0 mi NW 5.8 mph - N/A   Clear
11:54 PM 64.9 °F - 62.1 °F 90% 29.96 in 9.0 mi Calm Calm - N/A   Clear